TimeCDT,TemperatureF,Dew PointF,Humidity,Sea Level PressureIn,VisibilityMPH,Wind Direction,Wind SpeedMPH,Gust SpeedMPH,PrecipitationIn,Events,Conditions,WindDirDegrees,DateUTC
12:38 AM,73.4,71.6,94,30.16,10.0,South,3.5,-,N/A,,Partly Cloudy,180,2013-07-09 05:38:00
12:56 AM,75.0,72.0,90,30.14,10.0,Calm,Calm,-,N/A,,Clear,0,2013-07-09 05:56:00
1:35 AM,73.4,71.6,94,30.15,10.0,Calm,Calm,-,N/A,,Scattered Clouds,0,2013-07-09 06:35:00
1:56 AM,73.9,71.1,91,30.14,10.0,Calm,Calm,-,N/A,,Mostly Cloudy,0,2013-07-09 06:56:00
2:56 AM,73.0,71.1,93,30.14,10.0,NNE,3.5,-,N/A,,Overcast,20,2013-07-09 07:56:00
3:56 AM,73.0,70.0,90,30.14,10.0,Calm,Calm,-,N/A,,Overcast,0,2013-07-09 08:56:00
4:56 AM,72.0,70.0,93,30.15,10.0,Calm,Calm,-,N/A,,Overcast,0,2013-07-09 09:56:00
5:56 AM,72.0,69.1,91,30.16,10.0,Calm,Calm,-,N/A,,Overcast,0,2013-07-09 10:56:00
6:56 AM,72.0,70.0,93,30.18,10.0,Calm,Calm,-,N/A,,Overcast,0,2013-07-09 11:56:00
7:14 AM,73.4,69.8,88,30.19,10.0,Calm,Calm,-,N/A,,Overcast,0,2013-07-09 12:14:00
7:49 AM,75.2,71.6,89,30.20,10.0,Calm,Calm,-,N/A,,Scattered Clouds,0,2013-07-09 12:49:00
7:56 AM,75.0,73.0,94,30.19,10.0,Calm,Calm,-,N/A,,Partly Cloudy,0,2013-07-09 12:56:00
8:56 AM,80.1,73.0,79,30.19,10.0,Calm,Calm,-,N/A,,Overcast,0,2013-07-09 13:56:00
9:03 AM,80.6,73.4,79,30.21,10.0,Calm,Calm,-,N/A,,Overcast,0,2013-07-09 14:03:00
9:56 AM,81.0,73.0,77,30.19,10.0,WNW,3.5,-,N/A,,Mostly Cloudy,290,2013-07-09 14:56:00
10:12 AM,82.4,73.4,74,30.21,10.0,Calm,Calm,-,N/A,,Scattered Clouds,0,2013-07-09 15:12:00
10:56 AM,87.1,72.0,61,30.19,10.0,Calm,Calm,-,N/A,,Scattered Clouds,0,2013-07-09 15:56:00
11:56 AM,84.9,71.1,63,30.18,10.0,West,3.5,-,N/A,,Mostly Cloudy,280,2013-07-09 16:56:00
12:56 PM,88.0,70.0,55,30.17,10.0,Calm,Calm,-,N/A,,Scattered Clouds,0,2013-07-09 17:56:00
1:56 PM,89.1,72.0,57,30.14,10.0,Variable,4.6,-,N/A,,Clear,0,2013-07-09 18:56:00
2:56 PM,90.0,70.0,52,30.11,10.0,NNW,4.6,-,N/A,,Partly Cloudy,330,2013-07-09 19:56:00
3:56 PM,89.1,71.1,55,30.09,10.0,SW,3.5,-,N/A,,Partly Cloudy,220,2013-07-09 20:56:00
4:56 PM,84.9,75.0,72,30.08,10.0,Calm,Calm,-,N/A,,Clear,0,2013-07-09 21:56:00
5:56 PM,84.9,75.9,74,30.09,10.0,Calm,Calm,-,N/A,,Clear,0,2013-07-09 22:56:00
6:56 PM,82.0,77.0,85,30.09,10.0,Calm,Calm,-,N/A,,Clear,0,2013-07-09 23:56:00
7:56 PM,80.1,75.9,87,30.08,10.0,Calm,Calm,-,N/A,,Clear,0,2013-07-10 00:56:00
8:13 PM,80.6,77.0,89,30.10,10.0,Calm,Calm,-,N/A,,Partly Cloudy,0,2013-07-10 01:13:00
8:56 PM,81.0,75.9,85,30.10,10.0,Calm,Calm,-,N/A,,Clear,0,2013-07-10 01:56:00
9:56 PM,80.1,75.0,85,30.12,10.0,WNW,3.5,-,N/A,,Clear,300,2013-07-10 02:56:00
10:56 PM,79.0,75.0,88,30.11,10.0,Calm,Calm,-,N/A,,Clear,0,2013-07-10 03:56:00
11:56 PM,79.0,73.9,84,30.11,10.0,Calm,Calm,-,N/A,,Clear,0,2013-07-10 04:56:00